Overview Statistics Trail Chart Weather Telemetry Raw packets
 

This is the latest recevied weather packets stored in our database for station/object SV9TNF-57. If no packets are shown the sender has not sent any weather packets the latest 10 day(s).

<< 105 106 107 108 109 110 111 >>
Time Temp. Humidity Pressure Rain* Wind** Luminosity Snow
1787869605 28.33° C 48% 996.7 hPa 0 mm 0 m/s - -
1787869305 28.89° C 47% 996.6 hPa 0 mm 0.45 m/s, 253° - -
1787869005 28.33° C 46% 996.5 hPa 0 mm 0 m/s - -
1787868705 28.89° C 47% 996.7 hPa 0 mm 0 m/s - -
1787868404 28.33° C 47% 996.5 hPa 0 mm 0 m/s - -
1787868105 28.89° C 47% 996.6 hPa 0 mm 0 m/s - -
1787867804 28.89° C 48% 996.7 hPa 0 mm 0.89 m/s, 267° - -
1787867505 28.33° C 48% 996.5 hPa 0 mm 0 m/s - -
1787867204 28.89° C 48% 996.6 hPa 0 mm 0.45 m/s, 246° - -
1787866904 28.89° C 47% 996.7 hPa 0 mm 0 m/s - -
1787866604 28.89° C 48% 996.7 hPa 0 mm 0.45 m/s, 270° - -
1787866304 28.89° C 48% 996.8 hPa 0 mm 0.89 m/s, 287° - -
1787866004 28.33° C 46% 996.8 hPa 0 mm 0 m/s - -
1787865705 28.33° C 49% 996.9 hPa 0 mm 0 m/s - -
1787865404 28.33° C 47% 996.7 hPa 0 mm 0 m/s - -
1787865104 28.33° C 52% 997 hPa 0 mm 0 m/s - -
1787864804 28.33° C 55% 996.8 hPa 0 mm 0.45 m/s, 234° - -
1787864503 28.89° C 49% 996.8 hPa 0 mm 0.45 m/s, 196° - -
1787864203 28.89° C 45% 996.7 hPa 0 mm 0 m/s - -
1787863903 28.33° C 47% 996.8 hPa 0 mm 0.45 m/s, 276° - -
1787863603 28.33° C 47% 996.7 hPa 0 mm 0 m/s - -
1787863303 28.89° C 47% 996.8 hPa 0 mm 0.45 m/s, 274° - -
1787863003 28.33° C 46% 996.7 hPa 0 mm 0 m/s - -
1787862703 28.33° C 47% 996.5 hPa 0 mm 0 m/s - -
1787862402 27.78° C 48% 996.6 hPa 0 mm 0 m/s - -

* Rain latest hour (hover to see other rain measurements)
** Current wind speed in m/s (hover to see current wind gust speed)